Lambertville, MI

10:41 PM EDT on September 20, 2017 (GMT -0400)
Lambertville

Weather History for KDUH - January, 2013

Change the Weather History Date:

Monday, January 21, 2013

  Actual Average (KTOL) Record (KTOL)
Temperature  
Mean Temperature 14 °F -  
Max Temperature 20 °F 31 °F 70 °F (1906)
Min Temperature 9 °F 17 °F -20 °F (1984)
Degree Days  
Heating Degree Days 50    
Moisture  
Dew Point 6 °F    
Average Humidity 63    
Maximum Humidity 77    
Minimum Humidity 53    
Precipitation  
Precipitation 0.00 in - - ()
Sea Level Pressure  
Sea Level Pressure 30.05 in    
Wind  
Wind Speed 10 mph (West)    
Max Wind Speed 22 mph    
Max Gust Speed 29 mph    
Visibility 9 miles    
Events Snow    
Averages and records for this station are not official NWS values.
T = Trace of Precipitation, MM = Missing Value Source: NWS Daily Summary

Daily Weather History Graph

Daily Weather History Graph

Search for Another Location

Airport or City:

Trip Planner

Search our weather history database for the weather conditions in past years. The results will help you decide how hot, cold, wet, or windy it might be!

Date:

Astronomy

Jan. 21, 2013 Rise Set
Actual Time 7:55 AM EST 5:36 PM EST
Civil Twilight 7:25 AM EST 6:06 PM EST
Nautical Twilight 6:51 AM EST 6:40 PM EST
Astronomical Twilight 6:18 AM EST 7:13 PM EST
Moon 1:15 PM EST 3:23 AM EST
Length of Visible Light 10h 41m
Length of Day
9h 40m
Waxing Gibbous, 75% of the Moon is Illuminated
Jan 21
Waxing Gibbous
Jan 26
Full
Feb 3
Last Quarter
Feb 10
New
Feb 17
First Quarter

Hourly Weather History & Observations

Time (EST) Temp. Windchill Dew Point Humidity Pressure Visibility Wind Dir Wind Speed Gust Speed Precip Events Conditions
12:15 AM 19.9 °F 10.1 °F 5.2 °F 53% 30.15 in 10.0 mi West 8.1 mph - N/A   Overcast
12:36 AM 19.9 °F 11.1 °F 5.9 °F 55% 30.14 in 10.0 mi West 6.9 mph - N/A   Overcast
1:16 AM 19.9 °F 12.1 °F 6.4 °F 56% 30.12 in 10.0 mi West 5.8 mph - N/A   Overcast
1:35 AM 19.9 °F 10.1 °F 6.8 °F 57% 30.11 in 10.0 mi West 8.1 mph - N/A   Overcast
2:35 AM 19.4 °F 14.3 °F 6.3 °F 57% 30.11 in 10.0 mi SW 3.5 mph - N/A   Overcast
2:56 AM 19.4 °F 12.8 °F 6.4 °F 57% 30.10 in 10.0 mi WSW 4.6 mph - N/A   Overcast
3:16 AM 19.6 °F 14.5 °F 6.6 °F 57% 30.10 in 10.0 mi WSW 3.5 mph - N/A   Overcast
3:35 AM 19.8 °F 11.9 °F 6.6 °F 57% 30.09 in 10.0 mi SW 5.8 mph - N/A   Overcast
3:56 AM 19.9 °F 13.4 °F 7.0 °F 57% 30.08 in 10.0 mi WSW 4.6 mph - N/A   Overcast
4:15 AM 20.1 °F 10.3 °F 7.7 °F 59% 30.07 in 10.0 mi WSW 8.1 mph - N/A   Overcast
4:36 AM 20.1 °F 13.6 °F 8.1 °F 60% 30.06 in 10.0 mi SW 4.6 mph - N/A   Overcast
4:55 AM 20.1 °F 11.3 °F 7.9 °F 59% 30.05 in 10.0 mi SW 6.9 mph - N/A   Overcast
5:36 AM 20.1 °F 11.3 °F 9.3 °F 63% 30.04 in 10.0 mi SW 6.9 mph - N/A   Overcast
5:55 AM 20.1 °F 11.3 °F 9.7 °F 64% 30.03 in 10.0 mi SW 6.9 mph - N/A   Overcast
6:16 AM 19.9 °F 9.3 °F 9.7 °F 64% 30.03 in 10.0 mi SSW 9.2 mph - N/A   Overcast
6:36 AM 19.9 °F 11.1 °F 9.5 °F 64% 30.03 in 10.0 mi WSW 6.9 mph - N/A   Overcast
6:55 AM 19.9 °F 10.1 °F 9.9 °F 65% 30.03 in 10.0 mi WSW 8.1 mph - N/A   Overcast
7:16 AM 19.9 °F 10.1 °F 10.2 °F 66% 30.03 in 10.0 mi WSW 8.1 mph - N/A   Overcast
7:35 AM 20.1 °F 8.1 °F 10.0 °F 65% 30.03 in 10.0 mi WSW 11.5 mph 18.4 mph N/A   Overcast
7:55 AM 19.9 °F 9.3 °F 9.7 °F 64% 30.02 in 10.0 mi WSW 9.2 mph - N/A   Overcast
8:16 AM 19.8 °F 9.1 °F 9.7 °F 65% 30.02 in 10.0 mi West 9.2 mph 17.3 mph N/A   Overcast
8:35 AM 20.1 °F 9.5 °F 8.6 °F 61% 30.02 in 10.0 mi WSW 9.2 mph - N/A   Overcast
8:56 AM 19.6 °F 6.2 °F 7.3 °F 59% 30.01 in 10.0 mi West 13.8 mph 19.6 mph N/A   Overcast
9:16 AM 19.9 °F 7.3 °F 7.3 °F 58% 30.01 in 10.0 mi WSW 12.7 mph 18.4 mph N/A   Overcast
9:35 AM 19.8 °F 6.5 °F 6.8 °F 57% 30.01 in 10.0 mi WSW 13.8 mph 19.6 mph N/A   Overcast
9:56 AM 19.8 °F 7.1 °F 6.6 °F 57% 30.02 in 10.0 mi WSW 12.7 mph 16.1 mph N/A   Overcast
10:15 AM 20.1 °F 7.5 °F 7.3 °F 58% 30.02 in 10.0 mi West 12.7 mph 20.7 mph N/A   Overcast
10:36 AM 20.1 °F 5.4 °F 6.8 °F 56% 30.01 in 10.0 mi WSW 17.3 mph 21.9 mph N/A   Overcast
10:55 AM 20.1 °F 6.9 °F 7.5 °F 58% 30.01 in 10.0 mi West 13.8 mph 23.0 mph N/A   Overcast
11:15 AM 19.8 °F 5.4 °F 7.5 °F 59% 30.00 in 10.0 mi West 16.1 mph 24.2 mph N/A   Overcast
11:36 AM 19.4 °F 5.0 °F 7.5 °F 60% 30.00 in 7.0 mi West 16.1 mph 21.9 mph N/A   Overcast
11:55 AM 19.9 °F 6.2 °F 6.4 °F 56% 29.99 in 10.0 mi West 15.0 mph 27.6 mph N/A   Overcast
12:14 PM 19.6 °F 3.1 °F 6.6 °F 57% 29.99 in 7.0 mi West 21.9 mph 28.8 mph N/A   Overcast
12:36 PM 20.3 °F 5.7 °F 6.6 °F 56% 29.98 in 7.0 mi West 17.3 mph 25.3 mph N/A   Overcast
12:55 PM 19.6 °F 4.3 °F 6.3 °F 56% 29.97 in 10.0 mi West 18.4 mph 25.3 mph N/A   Overcast
1:16 PM 19.0 °F 6.1 °F 9.0 °F 65% 29.97 in 1.8 mi West 12.7 mph 26.5 mph N/A Snow Light Snow
1:36 PM 19.8 °F 5.4 °F 7.0 °F 58% 29.97 in 10.0 mi West 16.1 mph 25.3 mph N/A   Mostly Cloudy
1:55 PM 18.5 °F 4.9 °F 10.4 °F 71% 29.97 in 1.2 mi West 13.8 mph 25.3 mph N/A Snow Light Snow
2:15 PM 18.7 °F 3.1 °F 8.4 °F 64% 29.98 in 2.0 mi West 18.4 mph 27.6 mph N/A Snow Light Snow
2:35 PM 18.5 °F 4.3 °F 9.5 °F 68% 29.98 in 5.0 mi WSW 15.0 mph 21.9 mph N/A Snow Light Snow
2:56 PM 20.8 °F 5.5 °F 8.1 °F 58% 29.98 in 10.0 mi West 19.6 mph 27.6 mph N/A   Overcast
3:15 PM 19.9 °F 4.3 °F 5.9 °F 55% 29.98 in 10.0 mi West 19.6 mph 27.6 mph N/A   Mostly Cloudy
3:36 PM 17.2 °F 5.2 °F 10.4 °F 75% 30.00 in 1.2 mi WNW 10.4 mph 21.9 mph N/A Snow Light Snow
3:56 PM 16.7 °F 2.6 °F 8.6 °F 70% 30.01 in 2.5 mi WNW 13.8 mph 24.2 mph N/A Snow Light Snow
4:15 PM 17.1 °F 2.5 °F 5.9 °F 62% 30.02 in 7.0 mi WNW 15.0 mph 23.0 mph N/A   Overcast
4:36 PM 16.7 °F 1.0 °F 2.1 °F 53% 30.02 in 10.0 mi West 17.3 mph 27.6 mph N/A   Scattered Clouds
4:55 PM 16.2 °F 3.9 °F 5.7 °F 64% 30.03 in 10.0 mi WNW 10.4 mph 19.6 mph N/A   Scattered Clouds
5:15 PM 15.3 °F -2.2 °F 5.0 °F 64% 30.03 in 10.0 mi West 20.7 mph 26.5 mph N/A   Scattered Clouds
5:36 PM 14.9 °F -0.8 °F 3.6 °F 61% 30.04 in 10.0 mi West 16.1 mph 24.2 mph N/A   Scattered Clouds
5:55 PM 14.4 °F -1.5 °F 3.9 °F 63% 30.05 in 10.0 mi West 16.1 mph 23.0 mph N/A   Scattered Clouds
6:16 PM 13.8 °F -2.7 °F 7.7 °F 77% 30.06 in 1.5 mi West 17.3 mph 24.2 mph N/A Snow Light Snow
6:36 PM 13.3 °F -1.8 °F 5.5 °F 71% 30.07 in 5.0 mi WNW 13.8 mph 20.7 mph N/A Snow Light Snow
6:55 PM 12.2 °F -1.8 °F 2.3 °F 65% 30.07 in 10.0 mi West 11.5 mph 19.6 mph N/A   Scattered Clouds
7:16 PM 11.7 °F -5.0 °F -0.0 °F 59% 30.08 in 10.0 mi West 16.1 mph 20.7 mph N/A   Clear
7:56 PM 10.8 °F -3.6 °F -0.0 °F 62% 30.09 in 10.0 mi West 11.5 mph - N/A   Clear
8:16 PM 10.4 °F -5.4 °F -0.2 °F 62% 30.09 in 10.0 mi West 13.8 mph 18.4 mph N/A   Clear
8:35 PM 10.4 °F -4.8 °F -0.4 °F 62% 30.09 in 10.0 mi West 12.7 mph 17.3 mph N/A   Clear
8:56 PM 10.2 °F -4.3 °F -0.0 °F 63% 30.10 in 10.0 mi West 11.5 mph 16.1 mph N/A   Clear
9:15 PM 10.0 °F -1.9 °F 1.9 °F 70% 30.10 in 10.0 mi West 8.1 mph - N/A   Scattered Clouds
9:36 PM 9.9 °F -1.1 °F 2.3 °F 71% 30.10 in 10.0 mi West 6.9 mph - N/A   Clear
9:56 PM 10.2 °F -1.7 °F 2.7 °F 72% 30.11 in 10.0 mi West 8.1 mph - N/A   Clear
10:15 PM 10.4 °F -4.1 °F 2.5 °F 70% 30.11 in 10.0 mi West 11.5 mph - N/A   Clear
10:36 PM 10.0 °F -3.7 °F 1.9 °F 70% 30.11 in 10.0 mi West 10.4 mph 17.3 mph N/A   Scattered Clouds
10:55 PM 10.4 °F -3.3 °F 3.7 °F 74% 30.12 in 7.0 mi West 10.4 mph - N/A   Mostly Cloudy
11:15 PM 10.6 °F -4.5 °F 4.6 °F 77% 30.12 in 2.5 mi West 12.7 mph - N/A Snow Light Snow
11:36 PM 10.9 °F -0.8 °F 4.8 °F 76% 30.12 in 4.0 mi West 8.1 mph - N/A   Haze
11:55 PM 10.9 °F -1.8 °F 4.3 °F 75% 30.12 in 2.5 mi West 9.2 mph - N/A Snow Light Snow